Location: Avenches
(46.8809°N, 7.0410°E)
Time: 13:10:49
(UTC+00:00)

Cosmos 1626 - Pass Details

Date: 30 March 2020
Orbit: 493 x 494 km, 82.5° (Epoch: 25 May)

Event Time Altitude Azimuth Distance (km) Brightness Sun altitude
Rises 18:28:19 0° 358° (N) 2,588 6.0 -5.8°
Reaches altitude 10° 18:30:34 10° 7° (N) 1,701 4.9 -6.2°
Maximum altitude 18:34:02 37° 76° (ENE) 792 2.7 -6.7°
Drops below altitude 10° 18:37:29 10° 144° (SE) 1,687 4.4 -7.3°
Sets 18:39:41 0° 153° (SSE) 2,565 5.3 -7.7°
Enters shadow 18:39:48 - 153° (SSE) 2,609 5.4 -7.7°
